Weather in Yanchukan

Russia / Republic of Buryatia     56°14′57″N   112°47′52″E
temp.,
°C
wind,
m/s
gust,
m/s
humid.,
%
clouds,
%
prec.,
mm/h
press.,
hPa
HPBL,
m
5 december, sun
sun523:00−10ssw1196100 1.6 101237
02:00−10wsw2396100 3.9 101390
05:00−11w1296100 1.8 101490
08:00−11wsw2396100 2.7 101582
11:00−11wsw3596100 1.1 1016260
14:00−11w3496100 1.7 1017196
17:00−14w2399100 0.1 102141
20:00−16sw2296100 0.6 102226
6 december, mon
mon623:00−14wsw2497100 1.0 1022150
02:00−14wsw2497100 2.4 1021155
05:00−14sw1297100 1.3 102064
08:00−13ssw2296100 2.3 101861
11:00−12wsw2395100 1.3 1017196
14:00−12w1195100 2.8 1016125
17:00−12ssw1296100 1.1 101849
20:00−11sse1196100 1.8 101823
7 december, tue
tue723:00−11sse1196100 1.0 101823
02:00−10sw1196100 2.1 101831
05:00−10sw1196100 0.9 101837
08:00−10ssw1196100 1.6 101930
11:00−9sw119297 0.4 102071
14:00−9sw119398 0.4 101934
17:00−12ese228897 0.0 102010
20:00−12ese118384 0.0 101810
8 december, wed
wed823:00−13ese328176 0.0 101911
02:00−12ese2283100 0.0 101711
05:00−11e1185100 0.0 101610
08:00−11s1191100 0.2 101725
11:00−9w1195100 1.3 1017108
14:00−9w1296100 2.9 101783
17:00−10n2294100 1.5 101968
20:00−16ene2291100 1.8 102410
9 december, thu
thu923:00−17e2292100 0.2 102610
02:00−19e1296100 0.4 102911
05:00−21se2298100 0.2 103111
08:00−22ese2297100 0.3 103310
11:00−19s119694 0.1 103242
14:00−18w1197100 0.2 1032120
17:00−19nne0099100 0.4 103411
20:00−19wsw1199100 0.9 103610